Regional Weather Roundup
Issued by NWS Jackson, KY

Home | Current Version | Previous Version | Graphics & Text | Print | Product List | Glossary On
Versions: 1 2 3 4 5 6 7 8 9 10 11 12 13 14 15 16 17 18 19 20 21 22 23 24 25 26 27 28 29 30 31 32 33 34 35 36 37 38 39 40 41 42 43 44 45 46 47 48 49 50
000
ASUS43 KJKL 241411
RWRJKL

EAST KENTUCKY HOURLY WEATHER ROUNDUP
NATIONAL WEATHER SERVICE JACKSON KY
1000 AM EDT THU JUL 24 2014

NOTE: "FAIR" INDICATES FEW OR NO CLOUDS BELOW 12,000 FEET WITH
NO SIGNIFICANT WEATHER AND/OR OBSTRUCTIONS TO VISIBILITY.

* THESE REPORTS ARE NOT UNDER NWS QUALITY CONTROL AND MAY NOT
  REPORT WEATHER SUCH AS PRECIPITATION AND FOG.

KYZ079-080-083-085-087-088-110-112-115-119-120-241500
...EASTERN KENTUCKY...

CITY           SKY/WX    TMP DP  RH WIND       PRES   REMARKS
JACKSON        FOG       69  67  93 CALM      29.99S VSB 1/2
LONDON         LGT RAIN  71  68  90 W7        30.00S FOG
SOMERSET*      CLOUDY    72  70  94 NW3       30.00F FOG
MONTICELLO*    CLOUDY    72  71  96 SW5       30.01S FOG
WILLIAMSBURG*  CLOUDY    68  68 100 SW3       30.01R
MIDDLESBORO*   CLOUDY    71  68  91 CALM      30.01R
HARLAN APT*    CLOUDY    68  68 100 MISG      30.01S
HAZARD APT*    LGT RAIN  70  70 100 W3        29.99S
BLACK MTN*       N/A     64  63  94 S6          N/A
PIKEVILLE APT* FOG       68  68 100 CALM      29.99R VSB 1/2
BIG SANDY*     CLOUDY    69  68  98 CALM      29.98S FOG
MOREHEAD APT*  PTSUNNY   64  63  94 NE7       30.03S
$$

KYZ035-036-041-042-044-050-067-078-099-241500
...CENTRAL KENTUCKY...

CITY           SKY/WX    TMP DP  RH WIND       PRES   REMARKS
MT STERLING*   CLOUDY    63  61  94 NE6       30.03S
FLEMING/MASON* CLOUDY    63  59  88 NE12      30.04S
DANVILLE*      CLOUDY    64  63  94 N6        30.03S
RICHMOND*      CLOUDY    64  61  88 N5        30.02R
LEXINGTON      CLOUDY    67  60  78 NE14      30.03R
FRANKFORT      MOSUNNY   68  58  70 VRB7      30.04R
$$

KYZ091>093-OHZ055-061-077-WVZ005-015-034-035-042-241500
...SOUTHERN OHIO/WEST VIRGINIA...

CITY           SKY/WX    TMP DP  RH WIND       PRES   REMARKS
COVINGTON      CLOUDY    65  56  72 N14       30.06S
COLUMBUS       MOSUNNY   68  56  65 N12       30.05S
DAYTON         MOSUNNY   66  57  72 N13G21    30.09S
WILMINGTON     PTSUNNY   65  57  75 NE17      30.05S
HUNTINGTON     LGT RAIN  63  62  97 N6        29.99S FOG
CHARLESTON     CLOUDY    67  65  93 N8        29.97S FOG
PINEVILLE*     CLOUDY    74  72  91 MISG      30.03F
BECKLEY        CLOUDY    71  66  84 W8        30.02S
BLUEFIELD      CLOUDY    71  64  78 W7        30.05S
$$

VAZ002-007-008-TNZ017-027-036-066-071-241500
...SOUTHWEST VIRGINIA/EAST TENNESSEE...

CITY           SKY/WX    TMP DP  RH WIND       PRES   REMARKS
WISE*          CLOUDY    70  68  94 S5        30.05F
JONESVILLE*    MOSUNNY   68  68 100 CALM      30.03S
ABINGDON*      CLOUDY    72  70  92 W3        30.03R FOG
BRISTOL        CLOUDY    74  67  78 CALM      30.01S
KNOXVILLE      CLOUDY    75  71  87 SW7       29.99S
OAK RIDGE      CLOUDY    77  69  76 VRB5      30.01R
CROSSVILLE     PTSUNNY   74  67  78 NW7       30.05S
NASHVILLE      PTSUNNY   75  67  76 N9        30.02S
$$

...KEY TO REMARKS...
VSB - VISIBILITY IN MILES
WCI - WIND CHILL INDEX
HX  - HEAT INDEX

$$


USA.gov is the U.S. government's official web portal to all federal, state and local government web resources and services.